Weather in Teplaya gora

Russia / Perm Krai     58°31′38″N   59°04′18″E
temp.,
°C
wind,
m/s
gust,
m/s
humid.,
%
clouds,
%
prec.,
mm/h
press.,
hPa
HPBL,
m
25 february, thu
thu2523:00−27nne37960 0.0 1030136
02:00−27n23970 0.0 103033
05:00−27nnw12970 0.0 103019
08:00−27w119724 0.0 102919
11:00−20wsw129043 0.0 1029184
14:00−17wsw348826 0.0 1027387
17:00−18w249242 0.0 1027328
20:00−24w2210046 0.0 102729
26 february, fri
fri2623:00−26w1210042 0.0 102819
02:00−27wsw111008 0.0 102819
05:00−28wsw1110017 0.0 102819
08:00−28sw119851 0.0 102719
11:00−20ssw128743 0.0 1026221
14:00−15s237518 0.0 1024461
17:00−14sse248323 0.0 1024607
20:00−21ese229938 0.0 102320
27 february, sat
sat2723:00−23e1110047 0.0 102320
02:00−23e1210038 0.0 101820
05:00−25ene229819 0.0 101653
08:00−27ene41210042 0.0 1014261
11:00−25e61210071 0.0 1012324
14:00−22e71396100 0.1 1010507
17:00−19e71395100 0.3 1010712
20:00−20e61294100 0.5 1010685
28 february, sun
sun2823:00−20e61295100 0.8 1010586
02:00−21ene61295100 0.3 1008501
05:00−21ene61395100 0.7 1009464
08:00−23ene61396100 0.4 1010407
11:00−22ene61396100 0.8 1010388
14:00−20ene61195100 0.3 1011395
17:00−20ene51195100 0.6 1012390
20:00−22ene51195100 0.3 1014401
1 march, mon
mon123:00−22ne51194100 0.4 1016384
02:00−23ne4109596 0.1 1017319
05:00−25ne389896 0.1 1019232
08:00−27ne229989 0.0 102036
11:00−20ne139384 0.0 1020254
14:00−13ne128599 0.0 1019395
17:00−12w128699 0.0 1018458
20:00−19w229984 0.0 101725